Weather History for K1A5 - February, 2012

Change the Weather History Date:

Saturday, February 25, 2012

  Actual Average (KTOC) Record (KTOC)
Temperature  
Mean Temperature 36 °F -  
Max Temperature 46 °F 59 °F 70 °F (2014)
Min Temperature 26 °F 35 °F 27 °F (2015)
Degree Days  
Heating Degree Days 29    
Moisture  
Dew Point 13 °F    
Average Humidity 40    
Maximum Humidity 74    
Minimum Humidity 18    
Precipitation  
Precipitation 0.00 in - - ()
Sea Level Pressure  
Sea Level Pressure 30.16 in    
Wind  
Wind Speed 8 mph (WSW)    
Max Wind Speed 21 mph    
Max Gust Speed 37 mph    
Visibility 10 miles    
Events      
Averages and records for this station are not official NWS values.
T = Trace of Precipitation, MM = Missing Value Source: NWS Daily Summary

Daily Weather History Graph

Daily Weather History Graph

Search for Another Location

Airport or City:

Trip Planner

Search our weather history database for the weather conditions in past years. The results will help you decide how hot, cold, wet, or windy it might be!

Date:

Astronomy

Feb. 25, 2012 Rise Set
Actual Time 7:08 AM EST 6:25 PM EST
Civil Twilight 6:43 AM EST 6:50 PM EST
Nautical Twilight 6:13 AM EST 7:20 PM EST
Astronomical Twilight 5:44 AM EST 7:49 PM EST
Moon 8:42 AM EST (2/25) 10:13 PM EST (2/25)
Length of Visible Light 12h 07m
Length of Day
11h 16m
Waxing Crescent, 13% of the Moon is Illuminated
Feb 25
Waxing Crescent
Feb 29
First Quarter
Mar 8
Full
Mar 14
Last Quarter
Mar 22
New

Hourly Weather History & Observations

Time (EST) Temp. Windchill Dew Point Humidity Pressure Visibility Wind Dir Wind Speed Gust Speed Precip Events Conditions
12:15 AM 35.6 °F 28.0 °F 21.2 °F 56% 30.03 in 10.0 mi WSW 10.4 mph 17.3 mph N/A   Overcast
12:35 AM 35.6 °F 29.9 °F 21.2 °F 56% 30.03 in 10.0 mi WSW 6.9 mph - N/A   Overcast
12:55 AM 35.6 °F 30.7 °F 19.4 °F 52% 30.04 in 10.0 mi SW 5.8 mph 17.3 mph N/A   Overcast
1:15 AM 35.6 °F 27.5 °F 17.6 °F 48% 30.05 in 10.0 mi WSW 11.5 mph 25.3 mph N/A   Overcast
1:35 AM 35.6 °F 30.7 °F 17.6 °F 48% 30.07 in 10.0 mi WSW 5.8 mph 23.0 mph N/A   Overcast
1:55 AM 33.8 °F 29.6 °F 17.6 °F 52% 30.07 in 10.0 mi WSW 4.6 mph 17.3 mph N/A   Mostly Cloudy
2:15 AM 33.8 °F 27.0 °F 17.6 °F 52% 30.07 in 10.0 mi WSW 8.1 mph - N/A   Overcast
2:35 AM 33.8 °F 24.8 °F 15.8 °F 48% 30.07 in 10.0 mi WSW 12.7 mph 19.6 mph N/A   Overcast
2:55 AM 33.8 °F 26.4 °F 17.6 °F 52% 30.06 in 10.0 mi WSW 9.2 mph - N/A   Overcast
3:15 AM 33.8 °F 27.0 °F 17.6 °F 52% 30.07 in 10.0 mi WSW 8.1 mph 16.1 mph N/A   Overcast
4:35 AM 33.8 °F 28.6 °F 17.6 °F 52% 30.08 in 10.0 mi SW 5.8 mph - N/A   Mostly Cloudy
4:55 AM 32.0 °F 28.7 °F 17.6 °F 55% 30.09 in 10.0 mi WSW 3.5 mph - N/A   Scattered Clouds
5:15 AM 32.0 °F 25.6 °F 17.6 °F 55% 30.10 in 10.0 mi SW 6.9 mph - N/A   Scattered Clouds
5:35 AM 32.0 °F - 15.8 °F 51% 30.10 in 10.0 mi Calm Calm - N/A   Scattered Clouds
5:55 AM 32.0 °F 24.2 °F 15.8 °F 51% 30.11 in 10.0 mi SW 9.2 mph 19.6 mph N/A   Clear
6:15 AM 32.0 °F 25.6 °F 15.8 °F 51% 30.12 in 10.0 mi WSW 6.9 mph 20.7 mph N/A   Clear
6:55 AM 32.0 °F 26.4 °F 15.8 °F 51% 30.12 in 10.0 mi SW 5.8 mph - N/A   Clear
7:15 AM 32.0 °F - 15.8 °F 51% 30.12 in 10.0 mi Calm Calm - N/A   Clear
7:35 AM 32.0 °F 24.8 °F 15.8 °F 51% 30.12 in 10.0 mi SSW 8.1 mph - N/A   Clear
7:55 AM 33.8 °F 30.8 °F 15.8 °F 48% 30.13 in 10.0 mi SSE 3.5 mph - N/A   Clear
8:15 AM 33.8 °F 27.0 °F 14.0 °F 44% 30.13 in 10.0 mi WSW 8.1 mph - N/A   Clear
8:35 AM 35.6 °F 31.7 °F 15.8 °F 44% 30.14 in 10.0 mi SE 4.6 mph - N/A   Clear
8:55 AM 35.6 °F 30.7 °F 14.0 °F 41% 30.16 in 10.0 mi WSW 5.8 mph 18.4 mph N/A   Clear
9:15 AM 37.4 °F 33.8 °F 14.0 °F 38% 30.16 in 10.0 mi WSW 4.6 mph - N/A   Clear
9:35 AM 37.4 °F 32.8 °F 14.0 °F 38% 30.15 in 10.0 mi West 5.8 mph 18.4 mph N/A   Clear
9:55 AM 39.2 °F 32.0 °F 12.2 °F 33% 30.15 in 10.0 mi WSW 11.5 mph 23.0 mph N/A   Clear
10:15 AM 41.0 °F 33.9 °F 12.2 °F 31% 30.14 in 10.0 mi WSW 12.7 mph 21.9 mph N/A   Clear
10:55 AM 41.0 °F 33.1 °F 12.2 °F 31% 30.14 in 10.0 mi WSW 15.0 mph 19.6 mph N/A   Scattered Clouds
11:35 AM 44.6 °F 36.4 °F 14.0 °F 29% 30.15 in 10.0 mi West 20.7 mph 27.6 mph N/A   Mostly Cloudy
11:55 AM 42.8 °F 35.1 °F 12.2 °F 29% 30.14 in 10.0 mi West 16.1 mph 28.8 mph N/A   Scattered Clouds
12:15 PM 44.6 °F 38.1 °F 14.0 °F 29% 30.14 in 10.0 mi West 13.8 mph 28.8 mph N/A   Scattered Clouds
12:35 PM 46.4 °F 39.8 °F 14.0 °F 27% 30.14 in 10.0 mi West 16.1 mph 36.8 mph N/A   Mostly Cloudy
12:55 PM 44.6 °F 38.4 °F 12.2 °F 27% 30.14 in 10.0 mi WSW 12.7 mph 28.8 mph N/A   Mostly Cloudy
1:55 PM 46.4 °F 40.7 °F 14.0 °F 27% 30.14 in 10.0 mi West 12.7 mph 28.8 mph N/A   Scattered Clouds
2:35 PM 46.4 °F 41.9 °F 14.0 °F 27% 30.13 in 10.0 mi WSW 9.2 mph 24.2 mph N/A   Scattered Clouds
2:55 PM 46.4 °F 40.4 °F 12.2 °F 25% 30.13 in 10.0 mi WSW 13.8 mph 24.2 mph N/A   Clear
3:15 PM 46.4 °F 39.0 °F 10.4 °F 23% 30.13 in 10.0 mi WSW 19.6 mph 26.5 mph N/A   Clear
3:35 PM 46.4 °F 40.1 °F 10.4 °F 23% 30.13 in 10.0 mi WSW 15.0 mph 27.6 mph N/A   Clear
3:55 PM 46.4 °F 41.9 °F 10.4 °F 23% 30.14 in 10.0 mi WSW 9.2 mph 25.3 mph N/A   Clear
4:15 PM 46.4 °F 41.9 °F 5.0 °F 18% 30.14 in 10.0 mi WSW 9.2 mph 21.9 mph N/A   Clear
4:35 PM 46.4 °F 41.5 °F 8.6 °F 22% 30.15 in 10.0 mi WSW 10.4 mph 17.3 mph N/A   Clear
4:55 PM 46.4 °F 41.1 °F 8.6 °F 22% 30.16 in 10.0 mi WSW 11.5 mph 16.1 mph N/A   Clear
5:15 PM 44.6 °F 38.8 °F 5.0 °F 20% 30.17 in 10.0 mi South 11.5 mph 18.4 mph N/A   Clear
5:35 PM 44.6 °F 39.7 °F 5.0 °F 20% 30.18 in 10.0 mi WSW 9.2 mph - N/A   Clear
5:55 PM 42.8 °F 37.5 °F 5.0 °F 21% 30.18 in 10.0 mi WSW 9.2 mph - N/A   Clear
6:15 PM 42.8 °F 37.5 °F 5.0 °F 21% 30.20 in 10.0 mi WSW 9.2 mph - N/A   Clear
6:35 PM 41.0 °F 37.1 °F 5.0 °F 23% 30.21 in 10.0 mi WSW 5.8 mph 17.3 mph N/A   Clear
6:55 PM 41.0 °F 35.8 °F 5.0 °F 23% 30.22 in 10.0 mi WSW 8.1 mph 16.1 mph N/A   Clear
7:15 PM 41.0 °F 35.2 °F 6.8 °F 24% 30.23 in 10.0 mi WSW 9.2 mph - N/A   Clear
7:35 PM 39.2 °F 35.9 °F 6.8 °F 26% 30.23 in 10.0 mi WSW 4.6 mph - N/A   Clear
7:55 PM 37.4 °F 34.9 °F 8.6 °F 30% 30.25 in 10.0 mi West 3.5 mph - N/A   Clear
8:15 PM 35.6 °F 31.7 °F 10.4 °F 35% 30.25 in 10.0 mi WSW 4.6 mph - N/A   Clear
8:35 PM 37.4 °F 33.8 °F 8.6 °F 30% 30.26 in 10.0 mi WSW 4.6 mph - N/A   Clear
8:55 PM 35.6 °F - 10.4 °F 35% 30.26 in 10.0 mi Calm Calm - N/A   Clear
9:15 PM 35.6 °F 31.7 °F 10.4 °F 35% 30.26 in 10.0 mi WSW 4.6 mph - N/A   Clear
9:35 PM 32.0 °F 28.7 °F 14.0 °F 48% 30.27 in 10.0 mi WSW 3.5 mph - N/A   Clear
9:55 PM 32.0 °F - 17.6 °F 55% 30.28 in 10.0 mi Calm Calm - N/A   Clear
10:15 PM 30.2 °F 26.7 °F 17.6 °F 60% 30.28 in 10.0 mi WSW 3.5 mph - N/A   Clear
10:35 PM 28.4 °F - 19.4 °F 69% 30.28 in 10.0 mi Calm Calm - N/A   Clear
10:55 PM 28.4 °F - 19.4 °F 69% 30.28 in 10.0 mi Calm Calm - N/A   Clear
11:15 PM 26.6 °F - 19.4 °F 74% 30.29 in 10.0 mi Calm Calm - N/A   Clear
11:35 PM 26.6 °F - 17.6 °F 69% 30.29 in 10.0 mi Calm Calm - N/A   Clear
11:55 PM 26.6 °F - 17.6 °F 69% 30.29 in 10.0 mi Calm Calm - N/A   Clear